Skip Page Navigation
NASA JPL Caltech
NASA Logo - Jet Propulsion Laboratory + View the NASA Portal
+ Center for Near-Earth Object Studies
JPL Home Earth Solar System Stars & Galaxies Technology
JPL Solar System Dynamics
BODIES ORBITS EPHEMERIDES TOOLS PHYSICAL DATA DISCOVERY FAQ SITE MAP
IMPORTANT: The SSD Announcement email list is now available. Major changes are coming in the near future, including possible hostname and/or URL changes. To be notified of such changes, subscribe to this email list.

Please visit this page for more details.


JPL Small-Body Database Browser
Search: [ help ]  
136645 (1995 FV12)
Classification: Main-belt Asteroid          SPK-ID: 2136645
Ephemeris | Orbit Diagram | Orbital Elements | Mission Design | Physical Parameters | Discovery Circumstances | Close-Approach Data ]

[ show orbit diagram ]
Orbital Elements at Epoch 2459000.5 (2020-May-31.0) TDB
Reference: JPL 18 (heliocentric ecliptic J2000)
 Element Value Uncertainty (1-sigma)   Units 
e .072408317515399 4.3941e-08  
a 2.708692902572369 1.8859e-08 au
q 2.512561006831202 1.2066e-07 au
i 4.083803455101682 5.6659e-06 deg
node 7.566432580870105 6.4904e-05 deg
peri 104.1238144159581 7.5322e-05 deg
M 301.2124447639872 3.8922e-05 deg
tp 2459266.401618363532
(2021-Feb-20.90161836)
0.0001768 TDB
period 1628.313717530325
4.46
1.7005e-05
4.656e-08
d
yr
n .2210876172842261 2.3089e-09 deg/d
Q 2.904824798313538 2.0224e-08 au
  Orbit Determination Parameters
   # obs. used (total)      559  
   data-arc span      8956 days (24.52 yr)  
   first obs. used      1995-03-27  
   last obs. used      2019-10-03  
   planetary ephem.      DE431  
   SB-pert. ephem.      SB431-N16  
   condition code      0  
   norm. resid. RMS      .52685  
   source      ORB  
   producer      Otto Matic  
   solution date      2019-Nov-07 16:04:28  

Additional Information
 Earth MOID = 1.53296 au 
 Jupiter MOID = 2.15876 au 
 T_jup = 3.357 
[ show covariance matrix ]

Ephemeris | Orbit Diagram | Orbital Elements | Mission Design | Physical Parameters | Discovery Circumstances | Close-Approach Data ]

Physical Parameter Table
Parameter Symbol Value Units Sigma Reference Notes
absolute magnitude H 15.9   n/a MPO493780  

136645 (1995 FV12)          Discovered 1995-Mar-27 by Spacewatch at Kitt Peak
Reference: 20061205/Numbers.arcLast Updated: 2006-12-13

[ show close-approach data ]
Alternate Designations
 1995 FV12 = 2004 FY110 
Ephemeris | Orbit Diagram | Orbital Elements | Mission Design | Physical Parameters | Discovery Circumstances | Close-Approach Data ]
ABOUT SSD CREDITS/AWARDS PRIVACY/COPYRIGHT GLOSSARY LINKS
FirstGov 2020-May-27 10:54 UT
(server date/time)  
NASA Home Page
Site Manager:   Ryan S. Park
Webmaster  Alan B. Chamberlin